"Pseudo-MPEC" for P117Z5Q

Created 2020 Oct 23 16:07:30 UT using Find_Orb

Click here for an explanation of pseudo-MPECs

 
 Astrometry: 
     P117Z5Q  C2020 10 15VQnvmAstrometrykbredacted;:iLHLwL(ecwDu?anRg.a2NBGw:F51
     P117Z5Q  C2020 10 15hZUW,#^))@Il=GB6click.67:#EjP2c'Q$pe3'r6?Us9X@1%bGgRF51
     P117Z5Q  C2020 10 15^(0^*42here==A2).mUxgdrCl7HforT_explanation6,wr[p56]F51

Station data:
(F51) Pan-STARRS 1, Haleakala  (N20.707235 W156.255910)  US/Hawaii.
   Observers N. Primak, A. Schultz, S. Watters, J. Thiel, T. Goggia. Measurer
   PS1 Science Consortium. 1.8-m Ritchey-Chrétien + CCD.

Orbital elements:  P117Z5Q
   Perihelion 2020 Jul 18.496398 +/- 75.2 TT = 11:54:48 (JD 2459048.996398)
Epoch 2020 Oct 15.0 TT = JDT 2459137.5   Earth MOID: 0.3883   Ma: 0.0332
M  49.35256994 +/- 47               (J2000 ecliptic)          AutoNEOCP
n   0.55763346 +/- 0.366            Peri.  305.56413 +/- 110
a   1.46185231 +/- 0.64             Node    24.71601 +/- 42
e   0.0785508 +/- 0.28              Incl.   31.60547 +/- 20
P   1.77/645.57d           H 22.5   G  0.15   U 12.1  SR
q 1.34702258 +/- 0.417    Q 1.57668203 +/- 26.4
From 3 observations 2020 Oct. 15 (38.2 min); mean residual 0".04
Residuals in arcseconds: 
201015 F51  .02+  .04-    201015 F51  .04-  .07+    201015 F51  .02+  .04-    

Ephemerides (geocentric):
Date (UTC) HH   RA              Dec         delta   r     elong  mag " sig PA
---- -- -- --  -------------   -----------  ------ ------ -----  --- ---- ---
2020 10 23 16  01 42 05.397   +24 52 09.97  .41438 1.4010 166.5 22.0  43d 167
2020 10 23 17  01 41 54.587   +24 53 57.86  .41447 1.4010 166.5 22.0  43d 167
2020 10 23 18  01 41 43.777   +24 55 45.61  .41456 1.4011 166.4 22.0  43d 168
2020 10 23 19  01 41 32.968   +24 57 33.23  .41465 1.4011 166.4 22.0  43d 168
2020 10 23 20  01 41 22.159   +24 59 20.72  .41475 1.4012 166.4 22.0  43d 168
2020 10 23 21  01 41 11.350   +25 01 08.07  .41484 1.4012 166.3 22.0  43d 168
2020 10 23 22  01 41 00.542   +25 02 55.28  .41493 1.4013 166.3 22.0  44d 168
2020 10 23 23  01 40 49.734   +25 04 42.36  .41503 1.4013 166.3 22.0  44d 168
2020 10 24 00  01 40 38.927   +25 06 29.31  .41512 1.4013 166.2 22.0  44d 168
2020 10 24 01  01 40 28.120   +25 08 16.12  .41522 1.4014 166.2 22.0  44d 168
2020 10 24 02  01 40 17.314   +25 10 02.79  .41532 1.4014 166.2 22.0  44d 168
2020 10 24 03  01 40 06.509   +25 11 49.33  .41541 1.4015 166.1 22.0  44d 168
2020 10 24 04  01 39 55.704   +25 13 35.73  .41551 1.4015 166.1 22.0  44d 168
2020 10 24 05  01 39 44.900   +25 15 21.99  .41561 1.4015 166.1 22.0  44d 168
2020 10 24 06  01 39 34.096   +25 17 08.12  .41571 1.4016 166.0 22.0  44d 168
2020 10 24 07  01 39 23.294   +25 18 54.10  .41581 1.4016 166.0 22.0  44d 168
2020 10 24 08  01 39 12.492   +25 20 39.95  .41591 1.4017 165.9 22.0  44d 168
2020 10 24 09  01 39 01.691   +25 22 25.67  .41601 1.4017 165.9 22.0  44d 168
2020 10 24 10  01 38 50.892   +25 24 11.24  .41611 1.4017 165.9 22.0  45d 168
2020 10 24 11  01 38 40.093   +25 25 56.68  .41621 1.4018 165.8 22.0  45d 168
2020 10 24 12  01 38 29.295   +25 27 41.97  .41631 1.4018 165.8 22.0  45d 168
2020 10 24 13  01 38 18.499   +25 29 27.13  .41641 1.4019 165.8 22.0  45d 168
2020 10 24 14  01 38 07.703   +25 31 12.15  .41652 1.4019 165.7 22.0  45d 168
2020 10 24 15  01 37 56.909   +25 32 57.03  .41662 1.4020 165.7 22.0  45d 168
2020 10 24 16  01 37 46.116   +25 34 41.77  .41673 1.4020 165.6 22.0  45d 168
2020 10 24 17  01 37 35.324   +25 36 26.37  .41683 1.4020 165.6 22.0  45d 168
2020 10 24 18  01 37 24.533   +25 38 10.83  .41694 1.4021 165.6 22.0  45d 168
2020 10 24 19  01 37 13.744   +25 39 55.14  .41704 1.4021 165.5 22.0  45d 168
2020 10 24 20  01 37 02.956   +25 41 39.32  .41715 1.4022 165.5 22.0  45d 168
2020 10 24 21  01 36 52.170   +25 43 23.36  .41726 1.4022 165.4 22.0  45d 168
2020 10 24 22  01 36 41.385   +25 45 07.25  .41736 1.4022 165.4 22.0  46d 168
2020 10 24 23  01 36 30.602   +25 46 51.01  .41747 1.4023 165.4 22.0  46d 168
2020 10 25 00  01 36 19.821   +25 48 34.62  .41758 1.4023 165.3 22.0  46d 168
2020 10 25 01  01 36 09.041   +25 50 18.09  .41769 1.4024 165.3 22.0  46d 168
2020 10 25 02  01 35 58.262   +25 52 01.41  .41780 1.4024 165.2 22.0  46d 168
2020 10 25 03  01 35 47.486   +25 53 44.60  .41791 1.4025 165.2 22.0  46d 168
2020 10 25 04  01 35 36.711   +25 55 27.64  .41802 1.4025 165.2 22.0  46d 168
2020 10 25 05  01 35 25.938   +25 57 10.54  .41813 1.4025 165.1 22.0  46d 168
2020 10 25 06  01 35 15.167   +25 58 53.29  .41825 1.4026 165.1 22.0  46d 168
2020 10 25 07  01 35 04.397   +26 00 35.91  .41836 1.4026 165.0 22.0  46d 168
2020 10 25 08  01 34 53.630   +26 02 18.37  .41847 1.4027 165.0 22.0  46d 168
2020 10 25 09  01 34 42.865   +26 04 00.70  .41859 1.4027 164.9 22.0  47d 168
2020 10 25 10  01 34 32.101   +26 05 42.88  .41870 1.4027 164.9 22.0  47d 168
2020 10 25 11  01 34 21.340   +26 07 24.92  .41882 1.4028 164.9 22.0  47d 168
2020 10 25 12  01 34 10.581   +26 09 06.81  .41893 1.4028 164.8 22.0  47d 168
2020 10 25 13  01 33 59.824   +26 10 48.56  .41905 1.4029 164.8 22.0  47d 168
2020 10 25 14  01 33 49.069   +26 12 30.16  .41916 1.4029 164.7 22.0  47d 168
2020 10 25 15  01 33 38.317   +26 14 11.61  .41928 1.4030 164.7 22.1  47d 168